sat.trackr.live / text

‹ back to catalog

STARLINK-35739

NORAD 67053 · 2025-294Z

PAYLOAD ACTIVE UNKNOWN

§ Identity

Operator
Country
US
Launch date
2025-12-11
Launch site
AFETR
Launch vehicle
Mass (kg)
RCS (m²)

Purposes: comms

External: N2YO · Heavens-Above · Gunter

§ Orbital elements

Epoch: 2026-09-19T08:07:27.063552Z

Period
94.27 min
Inclination
43.0043°
Eccentricity
0.0000805
Mean motion
15.27599635 rev/d
Perigee alt
482.4 km
Apogee alt
483.5 km
Semi-major
6,861.1 km
B*
4.1612e-4
RAAN
24.5854°
Arg perigee
270.0648°
Mean anomaly
90.0111°
Rev number
4,441

§ Raw data

STARLINK-357391 67053U 25294Z   26262.33850768  .00011213  00000+0  41612-3 0  99952 67053  43.0043  24.5854 0000805 270.0648  90.0111 15.27599635 44412

JSON: /api/v1/satellites/67053 · /tle

For live sub-satellite position, see the globe view (requires WebGL).

§ Visibility from observer

Set your observer location to see the next 7 days of passes ≥ 10°. The values pass through the URL so the page stays shareable.

No JS? Fill the form by hand. The geolocation button needs JavaScript.